Temp
-4 -3 -3 -4 -4 -5 -5 -6 -6 -6 -6 -6 -6 -6 -6 -7 -7 -7 -8 -7 -7 -5 -5 -5 -5 -5 -5 -5 -5 -5 -6 -5 -5 -5 -6 -6 -6 -6 -6 -6 -7 -7 -7 -6
-3 -3 -4 -5 -5 -5 -6 -6 -7 -7 -7 -6 -6 -6 -6 -7 -7 -7 -7 -8 -6 -6 -6 -5 -5 -5 -5 -6 -6 -6 -6 -6 -6 -5 -6 -6 -7 -7 -7 -7 -7 -6 -6 -6
-3 -4 -5 -5 -5 -5 -5 -5 -6 -7 -7 -7 -7 -6 -5 -6 -5 -5 -5 -6 -6 -6 -5 -5 -5 -6 -6 -6 -6 -6 -6 -5 -5 -5 -6 -6 -6 -6 -7 -7 -7 -6 -6 -6
-3 -3 -4 -3 -4 -5 -4 -5 -6 -7 -7 -7 -6 -5 -5 -6 -6 -5 -6 -5 -6 -6 -5 -5 -5 -5 -5 -6 -6 -6 -6 -6 -5 -5 -6 -6 -6 -6 -6 -6 -6 -6 -6 -6
-3 -4 -4 -4 -4 -5 -5 -6 -7 -7 -8 -8 -6 -5 -4 -5 -5 -5 -5 -5 -5 -5 -5 -5 -5 -5 -5 -5 -5 -5 -5 -5 -5 -5 -5 -5 -6 -6 -6 -6 -6 -6 -6 -6
-3 -4 -3 -3 -4 -5 -5 -6 -7 -7 -7 -6 -5 -4 -4 -4 -5 -6 -5 -5 -5 -5 -5 -5 -5 -4 -4 -4 -4 -5 -5 -5 -5 -5 -5 -5 -5 -5 -6 -5 -5 -6 -6 -6
-3 -3 -3 -3 -3 -3 -3 -5 -6 -6 -6 -1 -4 -4 -2 -4 -6 -6 -5 -5 -5 -5 -5 -5 -5 -5 -5 -5 -4 -4 -4 -5 -5 -5 -5 -5 -5 -5 -6 -6 -6 -6 -6 -6
-4 -3 -3 -3 -3 -4 -3 -3 -3 -3 -2 -2 -4 -2 -1 -4 -6 -7 -6 -7 -7 -5 -6 -6 -6 -6 -5 -4 -4 -4 -5 -5 -5 -5 -6 -6 -5 -5 -6 -6 -6 -6 -6 -6
-4 -3 -4 -4 -4 -4 -3 -3 -4 -4 -4 -4 -3 -3 -4 -4 -5 -6 -6 -7 -6 -6 -6 -6 -6 -6 -5 -5 -5 -5 -5 -5 -6 -6 -6 -6 -6 -6 -6 -6 -6 -6 -6 -7
-4 -4 -4 -5 -4 -4 -4 -5 -4 -4 -4 -3 -2 -2 -2 -3 -5 -6 -5 -6 -6 -6 -6 -6 -6 -5 -6 -5 -5 -4 -4 -5 -5 -5 -6 -7 -7 -7 -7 -7 -7 -7 -7 -7
-4 -4 -4 -5 -3 -4 -3 -3 -3 -4 -3 -3 -3 -2 -2 -3 -4 -5 -6 -7 -6 -6 -6 -6 -7 -7 -7 -7 -6 -5 -5 -5 -5 -5 -6 -6 -7 -7 -7 -7 -7 -7 -7 -7
-5 -5 -4 -4 -4 -5 -5 -4 -5 -5 -3 -3 -2 -1 -2 -3 -4 -5 -6 -6 -6 -6 -5 -6 -7 -7 -7 -7 -7 -6 -6 -6 -6 -6 -6 -7 -7 -7 -7 -7 -7 -7 -7 -8
-5 -5 -5 -5 -5 -4 -4 -4 -4 -4 -3 -2 -2 -1 -3 -3 -3 -4 -5 -6 -6 -5 -5 -6 -7 -6 -7 -6 -6 -7 -7 -6 -7 -7 -6 -7 -7 -7 -7 -7 -7 -7 -7 -7
-6 -5 -5 -4 -5 -5 -4 -4 -3 -3 -2 -1 -1 -1 -2 -3 -4 -4 -4 -5 -5 -6 -6 -6 -6 -6 -6 -6 -6 -7 -7 -7 -7 -8 -7 -7 -7 -8 -8 -7 -7 -7 -7 -7
-6 -7 -5 -5 -5 -4 -4 -4 -3 -3 -3 -2 -2 -2 -2 -3 -4 -5 -4 -4 -5 -6 -6 -6 -6 -5 -5 -5 -5 -6 -6 -7 -7 -7 -8 -7 -7 -8 -8 -7 -8 -7 -7 -7
-8 -7 -6 -6 -5 -5 -4 -4 -4 -3 -3 -2 -2 -2 -2 -3 -3 -4 -4 -3 -4 -4 -5 -7 -7 -6 -6 -6 -5 -6 -6 -6 -7 -8 -7 -7 -7 -7 -7 -7 -7 -8 -7 -8
-9 -8 -8 -6 -6 -5 -5 -4 -4 -4 -3 -3 -2 -2 -2 -3 -3 -3 -4 -4 -3 -3 -5 -6 -7 -6 -6 -6 -6 -6 -7 -7 -7 -8 -8 -7 -8 -7 -7 -8 -8 -8 -8 -8
-11 -10 -9 -7 -7 -6 -4 -5 -5 -5 -4 -4 -3 -3 -3 -2 -3 -4 -4 -4 -4 -4 -4 -5 -6 -6 -6 -6 -6 -6 -7 -7 -7 -7 -7 -7 -8 -7 -8 -8 -8 -8 -8 -8
-12 -12 -11 -9 -8 -5 -5 -5 -6 -5 -4 -5 -5 -4 -3 -3 -2 -3 -3 -4 -4 -4 -4 -5 -6 -6 -6 -6 -6 -6 -6 -6 -6 -6 -7 -8 -8 -8 -8 -8 -8 -8 -8 -8
-14 -13 -13 -11 -8 -6 -5 -7 -6 -5 -4 -5 -4 -4 -4 -4 -3 -2 -4 -4 -4 -5 -4 -4 -5 -6 -7 -7 -6 -6 -7 -7 -7 -6 -7 -8 -8 -8 -7 -8 -8 -8 -8 -8
-15 -15 -13 -12 -9 -6 -6 -7 -7 -6 -4 -5 -4 -5 -4 -3 -3 -5 -4 -5 -5 -5 -5 -5 -5 -6 -7 -7 -6 -6 -7 -7 -7 -7 -7 -7 -8 -8 -8 -8 -8 -8 -9 -8
-18 -16 -14 -14 -12 -8 -7 -8 -9 -6 -6 -6 -6 -6 -5 -5 -5 -5 -5 -6 -6 -6 -6 -6 -6 -6 -6 -7 -7 -7 -7 -7 -8 -8 -8 -8 -8 -8 -8 -8 -8 -9 -8 -10
-19 -17 -15 -14 -13 -12 -10 -12 -10 -8 -8 -8 -6 -6 -6 -7 -6 -7 -7 -7 -7 -7 -7 -6 -6 -6 -7 -7 -7 -8 -8 -8 -8 -8 -8 -8 -7 -8 -9 -9 -9 -9 -9 -9
-21 -19 -17 -15 -13 -14 -13 -12 -11 -10 -10 -10 -9 -7 -7 -8 -7 -8 -7 -8 -8 -8 -8 -7 -7 -7 -7 -8 -7 -8 -8 -9 -8 -8 -9 -9 -9 -9 -9 -9 -9 -9 -9 -9
-21 -20 -19 -18 -15 -14 -14 -13 -13 -13 -12 -11 -11 -10 -9 -8 -8 -8 -8 -9 -9 -9 -9 -9 -7 -7 -7 -7 -7 -8 -8 -8 -8 -8 -8 -9 -9 -9 -9 -9 -9 -9 -9 -9
-21 -21 -20 -17 -17 -15 -13 -13 -13 -13 -12 -11 -11 -11 -10 -10 -9 -8 -8 -8 -8 -9 -9 -9 -7 -7 -7 -7 -8 -8 -8 -9 -9 -9 -9 -9 -10 -10 -9 -9 -9 -9 -9 -9
Height
5842 5844 5848 5855 5858 5863 5866 5868 5871 5873 5875 5878 5880 5881 5881 5880 5881 5881 5884 5886 5886 5889 5892 5895 5898 5900 5903 5907 5910 5912 5914 5915 5916 5917 5917 5920 5922 5924 5925 5927 5926 5927 5928 5928
5839 5842 5845 5848 5852 5856 5859 5862 5866 5871 5872 5873 5876 5879 5881 5878 5879 5880 5881 5884 5886 5888 5891 5895 5899 5901 5904 5907 5910 5914 5915 5915 5916 5916 5918 5919 5920 5923 5924 5926 5926 5926 5927 5928
5835 5839 5838 5842 5846 5850 5855 5860 5864 5868 5867 5868 5871 5874 5878 5879 5877 5879 5879 5881 5884 5887 5890 5894 5897 5902 5904 5906 5910 5912 5913 5915 5915 5916 5917 5919 5920 5922 5924 5926 5927 5926 5926 5927
5829 5833 5834 5837 5840 5845 5850 5855 5858 5861 5860 5862 5866 5868 5872 5875 5877 5876 5879 5880 5883 5886 5890 5893 5897 5899 5903 5906 5907 5908 5911 5913 5914 5916 5917 5919 5919 5921 5923 5925 5926 5925 5925 5925
5828 5829 5830 5832 5839 5840 5847 5850 5854 5855 5854 5855 5858 5860 5868 5868 5873 5875 5878 5879 5881 5885 5888 5892 5895 5898 5900 5903 5906 5907 5908 5910 5912 5914 5916 5917 5919 5919 5921 5923 5923 5924 5923 5923
5816 5819 5819 5827 5829 5834 5839 5841 5846 5847 5848 5842 5852 5856 5860 5866 5872 5873 5873 5877 5879 5883 5887 5889 5893 5895 5898 5900 5903 5905 5908 5910 5912 5913 5914 5916 5917 5918 5919 5920 5920 5920 5920 5921
5811 5812 5816 5820 5824 5828 5830 5832 5834 5836 5835 5836 5848 5848 5859 5864 5867 5871 5869 5873 5878 5882 5885 5889 5891 5894 5896 5898 5900 5903 5905 5907 5910 5911 5911 5912 5914 5915 5916 5917 5918 5918 5918 5919
5801 5804 5810 5817 5821 5826 5826 5826 5826 5826 5830 5836 5835 5838 5852 5859 5863 5868 5870 5869 5873 5876 5880 5885 5888 5891 5894 5896 5898 5901 5903 5904 5905 5906 5908 5908 5910 5912 5913 5913 5915 5915 5916 5916
5790 5794 5801 5806 5812 5816 5819 5813 5830 5826 5823 5830 5830 5836 5842 5851 5857 5861 5868 5867 5869 5873 5877 5880 5884 5887 5891 5894 5896 5897 5898 5900 5901 5901 5902 5904 5906 5907 5909 5910 5912 5912 5913 5914
5775 5782 5791 5797 5799 5803 5806 5817 5814 5813 5817 5819 5824 5829 5837 5846 5852 5856 5860 5863 5869 5871 5873 5876 5880 5882 5886 5890 5892 5894 5894 5895 5895 5896 5896 5898 5900 5902 5904 5905 5908 5910 5910 5911
5765 5770 5781 5784 5785 5795 5800 5801 5804 5810 5812 5815 5818 5825 5834 5841 5848 5852 5856 5861 5866 5868 5871 5874 5876 5879 5881 5884 5886 5888 5890 5891 5892 5893 5894 5895 5897 5898 5899 5901 5903 5905 5906 5907
5751 5756 5767 5776 5781 5787 5791 5795 5797 5799 5808 5814 5815 5819 5828 5835 5841 5847 5851 5855 5862 5864 5867 5869 5870 5872 5876 5878 5880 5883 5886 5887 5889 5889 5890 5892 5893 5894 5895 5896 5897 5899 5902 5902
5735 5742 5753 5763 5768 5771 5776 5783 5787 5791 5799 5801 5807 5812 5826 5830 5836 5841 5844 5849 5856 5862 5862 5865 5866 5867 5869 5873 5875 5878 5879 5883 5884 5885 5886 5888 5890 5891 5892 5893 5893 5895 5896 5899
5717 5726 5736 5744 5756 5759 5765 5772 5777 5783 5783 5795 5797 5809 5818 5826 5830 5834 5839 5843 5847 5851 5856 5860 5861 5864 5865 5868 5871 5874 5875 5876 5879 5880 5882 5885 5887 5888 5888 5889 5891 5892 5893 5894
5699 5708 5719 5727 5739 5745 5753 5761 5768 5769 5780 5780 5795 5799 5812 5820 5824 5827 5831 5835 5837 5841 5846 5852 5856 5859 5862 5865 5868 5870 5871 5871 5874 5876 5878 5881 5883 5885 5885 5886 5886 5888 5890 5890
5679 5690 5700 5712 5722 5732 5738 5748 5757 5762 5769 5772 5781 5789 5802 5812 5815 5818 5823 5826 5830 5837 5838 5843 5847 5852 5857 5860 5862 5864 5865 5867 5869 5871 5874 5876 5878 5880 5881 5882 5883 5883 5885 5886
5662 5671 5683 5694 5705 5715 5723 5740 5745 5753 5759 5766 5772 5785 5794 5805 5810 5813 5816 5817 5821 5824 5830 5835 5838 5843 5849 5854 5857 5858 5860 5862 5864 5866 5869 5870 5872 5876 5876 5877 5877 5879 5879 5880
5644 5653 5662 5674 5690 5696 5716 5727 5735 5739 5747 5756 5764 5775 5784 5793 5799 5803 5806 5810 5812 5816 5821 5826 5830 5834 5840 5845 5850 5851 5851 5855 5856 5860 5862 5864 5866 5869 5871 5871 5872 5873 5873 5873
5625 5633 5645 5655 5672 5687 5694 5705 5718 5724 5737 5745 5750 5761 5773 5782 5788 5792 5798 5801 5805 5809 5813 5817 5823 5827 5831 5835 5841 5844 5845 5846 5850 5853 5855 5858 5860 5862 5863 5864 5866 5865 5865 5866
5608 5616 5626 5641 5651 5666 5681 5692 5705 5713 5721 5733 5740 5749 5760 5770 5772 5785 5789 5792 5797 5801 5806 5809 5813 5817 5823 5828 5830 5832 5836 5838 5841 5846 5848 5851 5852 5853 5854 5856 5856 5856 5856 5857
5591 5597 5611 5624 5630 5647 5663 5679 5689 5700 5719 5726 5731 5740 5748 5756 5763 5771 5782 5783 5788 5792 5796 5801 5805 5808 5814 5818 5821 5823 5826 5829 5836 5840 5841 5843 5844 5846 5848 5848 5846 5846 5846 5847
5575 5585 5596 5607 5613 5627 5650 5664 5677 5691 5698 5716 5723 5730 5738 5745 5753 5760 5767 5774 5778 5785 5789 5792 5796 5799 5801 5807 5810 5814 5817 5822 5824 5827 5830 5832 5835 5836 5837 5838 5835 5832 5832 5833
5563 5574 5584 5592 5601 5620 5635 5652 5667 5676 5687 5698 5713 5721 5728 5736 5743 5752 5757 5761 5768 5774 5779 5782 5788 5790 5793 5796 5800 5803 5805 5808 5812 5815 5818 5820 5821 5822 5823 5821 5823 5820 5821 5821
5550 5556 5564 5577 5593 5602 5617 5640 5659 5672 5680 5689 5700 5711 5719 5726 5732 5740 5744 5750 5756 5763 5769 5774 5777 5780 5784 5787 5790 5793 5795 5798 5801 5803 5805 5806 5808 5809 5809 5811 5811 5810 5808 5805
5546 5547 5557 5561 5579 5593 5606 5629 5653 5667 5677 5685 5694 5700 5707 5715 5723 5731 5737 5742 5747 5752 5757 5763 5769 5772 5775 5778 5780 5782 5785 5788 5790 5791 5793 5793 5795 5796 5797 5796 5797 5795 5794 5793
5540 5540 5539 5560 5575 5582 5598 5617 5643 5661 5668 5678 5686 5693 5699 5706 5713 5720 5727 5734 5739 5743 5748 5753 5758 5761 5763 5766 5768 5770 5772 5775 5777 5779 5780 5781 5782 5783 5783 5782 5781 5778 5775 5775
Wind_Speed
12 15 16 19 15 18 23 23 21 16 17 10 11 7 13 11 9 13 10 8 7 10 12 18 21 20 19 14 9 9 11 12 13 15 14 11 9 9 8 6 4 3 2 1
11 3 10 20 20 22 26 28 23 19 18 16 16 14 14 10 13 13 15 10 9 10 11 13 15 16 15 15 10 8 9 10 11 10 11 11 10 8 7 5 4 4 3 3
16 10 15 15 22 24 26 24 26 23 26 26 25 18 16 10 14 15 18 18 15 12 15 16 17 15 16 14 11 10 8 7 8 8 9 10 11 10 9 8 8 7 5 6
23 20 18 17 19 25 25 23 27 29 31 29 26 25 24 17 17 15 18 21 20 17 14 16 16 17 16 16 15 13 9 7 6 6 8 10 11 11 10 10 9 8 7 8
19 20 19 18 11 21 20 28 26 30 33 34 32 29 22 23 22 18 17 22 22 19 16 16 16 15 14 12 10 12 12 11 10 10 10 10 11 12 12 11 9 8 8 8
31 29 31 24 22 20 22 31 34 35 37 43 32 26 25 21 10 26 23 22 24 23 20 16 15 17 15 17 15 12 10 10 11 12 14 14 13 12 14 12 7 8 8 7
33 32 30 29 28 25 26 33 40 45 47 34 31 34 17 16 19 23 25 23 19 19 19 16 11 10 14 15 16 14 12 13 15 15 16 17 16 13 15 13 10 8 8 6
35 37 32 27 26 24 26 32 38 36 29 24 39 30 11 19 22 22 20 22 23 23 17 15 12 10 12 14 14 14 13 16 17 18 19 18 16 14 15 14 12 10 10 8
44 42 36 35 32 32 31 39 28 39 42 35 35 21 22 22 27 30 27 27 28 23 16 15 14 11 11 13 14 14 15 17 19 21 23 21 19 17 17 19 16 14 12 12
50 48 41 37 39 41 40 32 38 43 42 38 29 25 18 20 27 27 26 22 26 24 23 18 16 17 9 12 18 16 13 7 13 17 18 21 21 21 21 22 19 18 17 15
53 52 48 45 49 43 42 43 43 39 40 38 34 24 17 12 22 32 26 28 29 28 25 19 14 15 14 16 20 21 19 12 11 14 17 19 20 22 24 25 24 21 21 18
59 60 54 51 48 43 44 42 44 46 41 34 34 27 20 15 19 28 30 36 31 31 30 27 24 21 21 22 24 21 20 20 16 17 20 19 19 15 14 18 23 25 23 21
66 64 60 57 57 57 56 52 51 48 44 44 41 29 25 18 14 26 36 37 33 30 33 32 29 28 24 24 25 20 23 20 20 20 21 21 17 14 12 13 15 18 21 22
71 69 65 64 59 60 60 59 55 52 53 43 41 33 24 18 19 20 32 40 41 40 37 34 33 33 31 24 22 27 29 28 27 26 23 22 19 16 14 13 14 16 19 23
76 74 72 70 64 63 61 61 59 58 53 54 43 38 29 20 20 21 26 35 44 44 41 36 39 35 30 27 21 23 29 29 29 28 27 22 21 21 20 18 16 17 19 19
82 79 77 74 72 68 65 62 60 61 58 56 49 45 36 27 27 29 30 31 32 39 43 39 38 38 36 33 29 28 22 29 30 24 23 27 25 23 22 20 19 19 17 19
87 86 82 80 76 73 71 63 62 62 60 57 54 47 38 30 30 31 33 37 34 30 33 41 43 39 38 37 32 28 24 28 31 26 24 23 27 25 24 24 24 23 22 24
91 91 88 86 80 80 72 68 66 67 64 60 57 52 47 40 36 37 38 38 39 36 34 37 39 38 35 33 35 26 26 27 33 34 32 28 28 29 28 27 23 27 28 30
95 95 93 91 87 83 80 77 71 74 68 65 61 57 52 48 46 41 40 41 40 42 37 36 41 39 37 34 30 29 28 21 22 26 28 34 32 35 35 32 34 26 31 35
91 94 95 95 94 91 86 79 75 74 72 68 66 61 55 52 53 46 41 40 40 40 41 40 41 45 45 41 39 37 34 34 28 26 31 36 37 37 40 39 40 36 37 35
89 96 96 97 99 96 91 85 81 78 72 63 64 63 60 58 52 49 42 41 39 37 40 42 41 44 50 49 42 41 42 43 42 27 32 34 36 36 38 46 45 42 40 39
64 84 100 96 101 102 94 88 86 83 77 69 67 57 60 58 52 49 46 42 41 38 36 37 35 40 44 47 49 48 45 40 35 33 37 37 41 41 42 47 54 53 53 45
44 65 80 100 105 95 95 85 84 84 80 77 71 66 61 54 52 45 40 44 38 33 36 40 35 37 41 44 42 41 40 41 39 40 41 47 47 38 46 43 44 48 56 54
32 44 60 75 98 97 98 83 77 73 72 74 69 69 67 59 58 48 43 44 44 38 37 32 31 33 32 44 44 46 44 47 45 44 43 46 47 45 47 50 49 53 51 49
27 33 40 50 70 81 86 87 73 59 48 38 38 43 54 57 53 53 44 43 39 39 37 36 33 35 34 34 36 45 52 55 55 56 53 49 44 48 52 53 56 59 58 59
24 32 46 42 36 52 75 87 70 50 52 42 44 49 42 43 42 42 48 48 48 49 43 43 37 38 41 42 41 40 41 40 39 40 42 43 43 47 52 55 56 60 63 65
Wind_Direction
266 253 243 236 232 212 206 208 215 225 232 247 224 190 175 155 175 133 99 129 141 140 167 170 174 175 174 173 168 169 169 165 166 159 159 159 154 151 154 162 147 158 193 320
256 24 268 237 222 212 214 213 216 226 249 241 238 228 213 165 171 166 153 154 163 151 158 179 178 181 178 179 183 180 178 172 168 169 172 168 175 185 193 199 212 238 265 303
248 244 244 236 226 219 215 215 214 224 239 245 245 233 211 222 200 174 165 163 166 173 173 180 173 182 193 189 196 207 208 189 175 173 183 186 188 199 208 225 237 260 286 309
237 237 243 235 225 226 217 210 213 221 237 244 245 230 210 226 220 187 186 168 166 171 179 183 196 192 190 198 203 206 209 215 201 194 204 204 206 210 215 230 248 266 281 293
246 241 244 249 257 237 224 225 222 229 240 248 248 242 197 213 213 198 202 178 166 170 178 183 181 187 197 201 195 198 203 204 207 210 218 214 211 215 220 232 249 280 292 290
226 225 227 224 220 222 224 228 225 227 235 247 247 249 204 205 213 221 200 190 172 169 173 183 190 178 181 182 189 195 196 208 210 213 222 220 221 218 224 234 245 297 294 262
230 234 237 229 229 223 215 216 222 227 230 257 243 249 182 194 191 193 177 182 175 176 169 179 194 198 195 196 195 203 214 218 217 219 220 224 227 222 226 242 253 277 276 263
230 234 237 236 235 239 239 238 235 241 258 264 247 243 183 186 181 182 185 176 188 186 171 154 165 204 224 228 228 226 235 245 237 231 230 232 237 238 234 238 246 259 264 252
231 231 229 226 226 230 232 235 244 245 251 253 261 251 248 216 199 203 200 202 202 188 200 196 197 189 215 233 239 237 247 250 250 242 236 233 235 240 238 239 240 250 249 232
228 228 225 224 227 224 226 232 234 236 244 254 256 254 241 217 207 217 209 213 209 183 179 184 205 201 200 226 228 233 228 237 261 247 234 232 227 233 239 244 246 248 248 240
233 234 224 221 229 225 227 230 233 236 242 250 262 260 261 242 212 217 223 208 194 188 178 174 193 215 213 231 226 220 214 237 267 249 234 232 229 230 237 242 247 247 250 242
234 235 233 227 228 225 227 230 238 244 247 255 262 258 265 245 212 209 215 214 198 199 193 189 197 202 227 232 233 211 226 254 248 239 236 227 227 231 245 247 247 247 245 236
233 235 234 232 230 230 232 230 232 237 238 239 246 243 251 258 229 212 210 216 213 216 210 201 211 210 209 226 213 222 244 230 236 235 234 223 223 227 241 256 249 247 243 236
233 233 232 232 230 233 232 234 235 235 240 241 242 246 245 237 242 221 216 222 219 221 226 231 214 225 227 220 232 225 232 232 229 226 228 225 226 229 235 246 259 258 242 238
234 233 232 233 231 233 233 233 235 238 242 244 245 246 238 227 230 235 226 220 225 225 231 230 229 231 239 231 237 244 240 233 233 229 229 234 229 234 244 255 256 254 255 246
232 233 234 233 234 234 232 234 235 238 242 244 243 242 240 222 221 226 237 240 233 229 231 228 232 235 234 248 237 241 245 237 231 229 233 240 242 239 244 252 260 260 256 254
228 233 233 235 235 235 233 232 235 238 241 244 246 249 242 227 222 228 234 244 246 244 234 234 237 245 240 244 252 246 233 240 233 242 243 242 245 241 241 249 257 267 271 264
224 228 232 233 233 235 233 232 234 237 238 243 246 248 248 242 224 224 231 238 247 245 242 241 241 244 245 246 250 246 238 252 235 232 240 249 244 240 239 245 256 264 271 272
221 224 228 232 232 233 233 233 232 234 235 237 242 245 246 247 246 234 229 236 241 251 249 244 242 248 253 258 257 253 258 244 239 253 245 242 249 248 245 256 262 269 268 269
221 222 226 228 232 231 231 235 235 233 233 235 237 239 239 243 246 247 230 234 239 245 251 248 246 246 243 255 263 266 263 262 269 254 250 241 241 248 251 256 270 273 267 259
226 224 224 225 230 230 230 231 234 234 233 231 237 238 240 240 240 249 238 236 236 239 245 246 248 250 249 251 259 263 266 266 272 258 251 254 253 261 261 252 260 263 261 264
235 231 225 225 227 229 230 231 232 234 236 232 234 239 240 241 244 244 248 242 241 239 241 247 253 252 248 249 254 259 261 261 257 245 246 238 246 258 259 257 260 258 267 261
236 235 234 229 229 232 229 233 232 233 237 238 234 236 238 240 241 248 244 250 248 229 237 243 244 249 250 251 252 249 250 250 254 244 251 249 256 256 255 254 273 273 276 281
233 231 236 233 228 232 233 227 232 236 240 242 242 239 237 240 243 243 241 242 247 245 244 242 238 239 243 239 244 247 246 248 256 260 255 258 263 249 243 258 261 265 273 269
231 230 222 232 230 231 234 233 226 228 232 238 236 239 246 247 245 241 238 234 239 244 250 241 242 238 239 242 244 248 250 254 258 262 267 269 262 258 264 264 269 268 270 265
237 228 216 199 207 228 232 229 221 215 219 219 222 225 226 236 239 241 242 240 239 243 243 249 249 238 242 246 248 251 252 254 257 259 260 262 262 264 266 266 269 273 275 274